owner,sensor,date,latitude,longitude,vertical_datum,sea_water_temperature,qcFlag 
TCOON,ioos:station:TCOON:518:1,2009-03-16T20:00:00Z,29.5150,-94.5133,0.0,16.4,11111222 
TCOON,ioos:station:TCOON:518:1,2009-03-16T21:00:00Z,29.5150,-94.5133,0.0,16.7,11111222 
TCOON,ioos:station:TCOON:518:1,2009-03-16T22:00:00Z,29.5150,-94.5133,0.0,16.5,11111222 
TCOON,ioos:station:TCOON:518:1,2009-03-16T23:00:00Z,29.5150,-94.5133,0.0,17.4,11111222 
TCOON,ioos:station:TCOON:518:1,2009-03-17T00:00:00Z,29.5150,-94.5133,0.0,17.5,11111222 
TCOON,ioos:station:TCOON:518:1,2009-03-17T01:00:00Z,29.5150,-94.5133,0.0,17.4,11111222 
TCOON,ioos:station:TCOON:518:1,2009-03-17T02:00:00Z,29.5150,-94.5133,0.0,17.8,11111222 
TCOON,ioos:station:TCOON:518:1,2009-03-17T03:00:00Z,29.5150,-94.5133,0.0,17.7,11111222 
TCOON,ioos:station:TCOON:518:1,2009-03-17T04:00:00Z,29.5150,-94.5133,0.0,17.4,11111222 
TCOON,ioos:station:TCOON:518:1,2009-03-17T05:00:00Z,29.5150,-94.5133,0.0,17.4,11111222 
TCOON,ioos:station:TCOON:518:1,2009-03-17T06:00:00Z,29.5150,-94.5133,0.0,17.1,11111222 
TCOON,ioos:station:TCOON:518:1,2009-03-17T07:00:00Z,29.5150,-94.5133,0.0,16.9,11111222 
TCOON,ioos:station:TCOON:518:1,2009-03-17T08:00:00Z,29.5150,-94.5133,0.0,16.3,11111222 
TCOON,ioos:station:TCOON:518:1,2009-03-17T09:00:00Z,29.5150,-94.5133,0.0,16.0,11111222 
TCOON,ioos:station:TCOON:518:1,2009-03-17T10:00:00Z,29.5150,-94.5133,0.0,15.7,11111222 
TCOON,ioos:station:TCOON:518:1,2009-03-17T11:00:00Z,29.5150,-94.5133,0.0,15.6,11111222 
TCOON,ioos:station:TCOON:518:1,2009-03-17T12:00:00Z,29.5150,-94.5133,0.0,15.1,11111222 
TCOON,ioos:station:TCOON:518:1,2009-03-17T13:00:00Z,29.5150,-94.5133,0.0,14.8,11111222 
TCOON,ioos:station:TCOON:518:1,2009-03-17T14:00:00Z,29.5150,-94.5133,0.0,14.9,11111222 
TCOON,ioos:station:TCOON:518:1,2009-03-17T15:00:00Z,29.5150,-94.5133,0.0,15.6,11111222 
TCOON,ioos:station:TCOON:518:1,2009-03-17T16:00:00Z,29.5150,-94.5133,0.0,16.3,11111222 
TCOON,ioos:station:TCOON:518:1,2009-03-17T17:00:00Z,29.5150,-94.5133,0.0,16.3,11111222 
TCOON,ioos:station:TCOON:518:1,2009-03-17T18:00:00Z,29.5150,-94.5133,0.0,16.5,11111222 
TCOON,ioos:station:TCOON:518:1,2009-03-17T19:00:00Z,29.5150,-94.5133,0.0,16.1,11111222 
TCOON,ioos:station:TCOON:518:1,2009-03-17T20:00:00Z,29.5150,-94.5133,0.0,16.2,11111222 
TCOON,ioos:station:TCOON:518:1,2009-03-17T21:00:00Z,29.5150,-94.5133,0.0,16.2,11111222 
TCOON,ioos:station:TCOON:518:1,2009-03-17T22:00:00Z,29.5150,-94.5133,0.0,16.0,11111222 
TCOON,ioos:station:TCOON:518:1,2009-03-17T23:00:00Z,29.5150,-94.5133,0.0,16.1,11111222 
TCOON,ioos:station:TCOON:518:1,2009-03-18T00:00:00Z,29.5150,-94.5133,0.0,16.4,11111222 
TCOON,ioos:station:TCOON:518:1,2009-03-18T01:00:00Z,29.5150,-94.5133,0.0,16.4,11111222 
TCOON,ioos:station:TCOON:518:1,2009-03-18T02:00:00Z,29.5150,-94.5133,0.0,16.2,11111222 
TCOON,ioos:station:TCOON:518:1,2009-03-18T03:00:00Z,29.5150,-94.5133,0.0,16.2,11111222 
TCOON,ioos:station:TCOON:518:1,2009-03-18T04:00:00Z,29.5150,-94.5133,0.0,15.9,11111222 
TCOON,ioos:station:TCOON:518:1,2009-03-18T05:00:00Z,29.5150,-94.5133,0.0,16.2,11111222 
TCOON,ioos:station:TCOON:518:1,2009-03-18T06:00:00Z,29.5150,-94.5133,0.0,16.3,11111222 
TCOON,ioos:station:TCOON:518:1,2009-03-18T07:00:00Z,29.5150,-94.5133,0.0,16.2,11111222 
TCOON,ioos:station:TCOON:518:1,2009-03-18T08:00:00Z,29.5150,-94.5133,0.0,16.3,11111222 
TCOON,ioos:station:TCOON:518:1,2009-03-18T09:00:00Z,29.5150,-94.5133,0.0,16.2,11111222 
TCOON,ioos:station:TCOON:518:1,2009-03-18T10:00:00Z,29.5150,-94.5133,0.0,16.1,11111222 
TCOON,ioos:station:TCOON:518:1,2009-03-18T11:00:00Z,29.5150,-94.5133,0.0,16.3,11111222 
TCOON,ioos:station:TCOON:518:1,2009-03-18T12:00:00Z,29.5150,-94.5133,0.0,16.2,11111222 
TCOON,ioos:station:TCOON:518:1,2009-03-18T13:00:00Z,29.5150,-94.5133,0.0,15.2,11111222 
TCOON,ioos:station:TCOON:518:1,2009-03-18T14:00:00Z,29.5150,-94.5133,0.0,15.5,11111222 
TCOON,ioos:station:TCOON:518:1,2009-03-18T15:00:00Z,29.5150,-94.5133,0.0,16.1,11111222 
TCOON,ioos:station:TCOON:518:1,2009-03-18T16:00:00Z,29.5150,-94.5133,0.0,16.8,11111222 
TCOON,ioos:station:TCOON:518:1,2009-03-18T17:00:00Z,29.5150,-94.5133,0.0,17.7,11111222 
TCOON,ioos:station:TCOON:518:1,2009-03-18T18:00:00Z,29.5150,-94.5133,0.0,18.5,11111222 
TCOON,ioos:station:TCOON:518:1,2009-03-18T19:00:00Z,29.5150,-94.5133,0.0,18.9,11111222 
TCOON,ioos:station:TCOON:518:1,2009-03-18T20:00:00Z,29.5150,-94.5133,0.0,18.3,11111222 
TCOON,ioos:station:TCOON:518:1,2009-03-18T21:00:00Z,29.5150,-94.5133,0.0,18.9,11111222 
TCOON,ioos:station:TCOON:518:1,2009-03-18T22:00:00Z,29.5150,-94.5133,0.0,18.3,11111222 
TCOON,ioos:station:TCOON:518:1,2009-03-18T23:00:00Z,29.5150,-94.5133,0.0,17.8,11111222 
TCOON,ioos:station:TCOON:518:1,2009-03-19T00:00:00Z,29.5150,-94.5133,0.0,17.3,11111222 
TCOON,ioos:station:TCOON:518:1,2009-03-19T01:00:00Z,29.5150,-94.5133,0.0,17.7,11111222 
TCOON,ioos:station:TCOON:518:1,2009-03-19T02:00:00Z,29.5150,-94.5133,0.0,18.0,11111222 
TCOON,ioos:station:TCOON:518:1,2009-03-19T03:00:00Z,29.5150,-94.5133,0.0,18.0,11111222 
TCOON,ioos:station:TCOON:518:1,2009-03-19T04:00:00Z,29.5150,-94.5133,0.0,18.1,11111222 
TCOON,ioos:station:TCOON:518:1,2009-03-19T05:00:00Z,29.5150,-94.5133,0.0,17.6,11111222 
TCOON,ioos:station:TCOON:518:1,2009-03-19T06:00:00Z,29.5150,-94.5133,0.0,17.3,11111222 
TCOON,ioos:station:TCOON:518:1,2009-03-19T07:00:00Z,29.5150,-94.5133,0.0,17.5,11111222 
TCOON,ioos:station:TCOON:518:1,2009-03-19T08:00:00Z,29.5150,-94.5133,0.0,17.1,11111222 
TCOON,ioos:station:TCOON:518:1,2009-03-19T09:00:00Z,29.5150,-94.5133,0.0,17.1,11111222 
TCOON,ioos:station:TCOON:518:1,2009-03-19T10:00:00Z,29.5150,-94.5133,0.0,17.0,11111222 
TCOON,ioos:station:TCOON:518:1,2009-03-19T11:00:00Z,29.5150,-94.5133,0.0,16.9,11111222 
TCOON,ioos:station:TCOON:518:1,2009-03-19T12:00:00Z,29.5150,-94.5133,0.0,16.8,11111222 
TCOON,ioos:station:TCOON:518:1,2009-03-19T13:00:00Z,29.5150,-94.5133,0.0,17.0,11111222 
TCOON,ioos:station:TCOON:518:1,2009-03-19T14:00:00Z,29.5150,-94.5133,0.0,16.9,11111222 
TCOON,ioos:station:TCOON:518:1,2009-03-19T15:00:00Z,29.5150,-94.5133,0.0,17.4,11111222 
TCOON,ioos:station:TCOON:518:1,2009-03-19T16:00:00Z,29.5150,-94.5133,0.0,18.1,11111222 
TCOON,ioos:station:TCOON:518:1,2009-03-19T17:00:00Z,29.5150,-94.5133,0.0,18.7,11111222 
TCOON,ioos:station:TCOON:518:1,2009-03-19T18:00:00Z,29.5150,-94.5133,0.0,18.9,11111222 
TCOON,ioos:station:TCOON:518:1,2009-03-19T19:00:00Z,29.5150,-94.5133,0.0,18.5,11111222 
TCOON,ioos:station:TCOON:518:1,2009-03-19T20:00:00Z,29.5150,-94.5133,0.0,18.6,11111222 
TCOON,ioos:station:TCOON:518:1,2009-03-19T21:00:00Z,29.5150,-94.5133,0.0,18.6,11111222 
TCOON,ioos:station:TCOON:518:1,2009-03-19T22:00:00Z,29.5150,-94.5133,0.0,18.6,11111222 
TCOON,ioos:station:TCOON:518:1,2009-03-19T23:00:00Z,29.5150,-94.5133,0.0,18.3,11111222 
TCOON,ioos:station:TCOON:518:1,2009-03-20T00:00:00Z,29.5150,-94.5133,0.0,18.5,11111222 
TCOON,ioos:station:TCOON:518:1,2009-03-20T01:00:00Z,29.5150,-94.5133,0.0,18.3,11111222 
TCOON,ioos:station:TCOON:518:1,2009-03-20T02:00:00Z,29.5150,-94.5133,0.0,18.3,11111222 
TCOON,ioos:station:TCOON:518:1,2009-03-20T03:00:00Z,29.5150,-94.5133,0.0,18.4,11111222 
TCOON,ioos:station:TCOON:518:1,2009-03-20T04:00:00Z,29.5150,-94.5133,0.0,18.4,11111222 
TCOON,ioos:station:TCOON:518:1,2009-03-20T05:00:00Z,29.5150,-94.5133,0.0,18.4,11111222 
TCOON,ioos:station:TCOON:518:1,2009-03-20T06:00:00Z,29.5150,-94.5133,0.0,18.4,11111222 
TCOON,ioos:station:TCOON:518:1,2009-03-20T07:00:00Z,29.5150,-94.5133,0.0,18.8,11111222 
TCOON,ioos:station:TCOON:518:1,2009-03-20T08:00:00Z,29.5150,-94.5133,0.0,19.1,11111222 
TCOON,ioos:station:TCOON:518:1,2009-03-20T09:00:00Z,29.5150,-94.5133,0.0,19.1,11111222 
TCOON,ioos:station:TCOON:518:1,2009-03-20T10:00:00Z,29.5150,-94.5133,0.0,18.9,11111222 
TCOON,ioos:station:TCOON:518:1,2009-03-20T11:00:00Z,29.5150,-94.5133,0.0,18.9,11111222 
TCOON,ioos:station:TCOON:518:1,2009-03-20T12:00:00Z,29.5150,-94.5133,0.0,18.7,11111222 
TCOON,ioos:station:TCOON:518:1,2009-03-20T13:00:00Z,29.5150,-94.5133,0.0,16.7,11111222 
TCOON,ioos:station:TCOON:518:1,2009-03-20T14:00:00Z,29.5150,-94.5133,0.0,18.4,11111222 
TCOON,ioos:station:TCOON:518:1,2009-03-20T15:00:00Z,29.5150,-94.5133,0.0,19.0,11111222 
TCOON,ioos:station:TCOON:518:1,2009-03-20T16:00:00Z,29.5150,-94.5133,0.0,18.9,11111222 
TCOON,ioos:station:TCOON:518:1,2009-03-20T17:00:00Z,29.5150,-94.5133,0.0,20.2,11111222 
TCOON,ioos:station:TCOON:518:1,2009-03-20T18:00:00Z,29.5150,-94.5133,0.0,19.2,11111222 
TCOON,ioos:station:TCOON:518:1,2009-03-20T19:00:00Z,29.5150,-94.5133,0.0,19.9,11111222 
TCOON,ioos:station:TCOON:518:1,2009-03-20T20:00:00Z,29.5150,-94.5133,0.0,21.5,11111222 
TCOON,ioos:station:TCOON:518:1,2009-03-20T21:00:00Z,29.5150,-94.5133,0.0,19.3,11111222 
TCOON,ioos:station:TCOON:518:1,2009-03-20T22:00:00Z,29.5150,-94.5133,0.0,19.4,11111222 
TCOON,ioos:station:TCOON:518:1,2009-03-20T23:00:00Z,29.5150,-94.5133,0.0,20.3,11111222 
TCOON,ioos:station:TCOON:518:1,2009-03-21T00:00:00Z,29.5150,-94.5133,0.0,19.4,11111222 
TCOON,ioos:station:TCOON:518:1,2009-03-21T01:00:00Z,29.5150,-94.5133,0.0,19.4,11111222 
TCOON,ioos:station:TCOON:518:1,2009-03-21T02:00:00Z,29.5150,-94.5133,0.0,19.4,11111222 
TCOON,ioos:station:TCOON:518:1,2009-03-21T03:00:00Z,29.5150,-94.5133,0.0,19.3,11111222 
TCOON,ioos:station:TCOON:518:1,2009-03-21T04:00:00Z,29.5150,-94.5133,0.0,19.3,11111222 
TCOON,ioos:station:TCOON:518:1,2009-03-21T05:00:00Z,29.5150,-94.5133,0.0,19.2,11111222 
TCOON,ioos:station:TCOON:518:1,2009-03-21T06:00:00Z,29.5150,-94.5133,0.0,19.2,11111222 
TCOON,ioos:station:TCOON:518:1,2009-03-21T07:00:00Z,29.5150,-94.5133,0.0,19.4,11111222 
TCOON,ioos:station:TCOON:518:1,2009-03-21T08:00:00Z,29.5150,-94.5133,0.0,19.3,11111222 
TCOON,ioos:station:TCOON:518:1,2009-03-21T09:00:00Z,29.5150,-94.5133,0.0,19.2,11111222 
TCOON,ioos:station:TCOON:518:1,2009-03-21T10:00:00Z,29.5150,-94.5133,0.0,19.4,11111222 
TCOON,ioos:station:TCOON:518:1,2009-03-21T11:00:00Z,29.5150,-94.5133,0.0,19.2,11111222 
TCOON,ioos:station:TCOON:518:1,2009-03-21T12:00:00Z,29.5150,-94.5133,0.0,19.2,11111222 
TCOON,ioos:station:TCOON:518:1,2009-03-21T13:00:00Z,29.5150,-94.5133,0.0,18.7,11111222 
TCOON,ioos:station:TCOON:518:1,2009-03-21T14:00:00Z,29.5150,-94.5133,0.0,19.3,11111222 
TCOON,ioos:station:TCOON:518:1,2009-03-21T15:00:00Z,29.5150,-94.5133,0.0,19.5,11111222 
TCOON,ioos:station:TCOON:518:1,2009-03-21T16:00:00Z,29.5150,-94.5133,0.0,19.7,11111222 
TCOON,ioos:station:TCOON:518:1,2009-03-21T17:00:00Z,29.5150,-94.5133,0.0,20.3,11111222 
TCOON,ioos:station:TCOON:518:1,2009-03-21T18:00:00Z,29.5150,-94.5133,0.0,22.4,11111222 
TCOON,ioos:station:TCOON:518:1,2009-03-21T19:00:00Z,29.5150,-94.5133,0.0,21.8,11111222 
TCOON,ioos:station:TCOON:518:1,2009-03-21T20:00:00Z,29.5150,-94.5133,0.0,21.5,11111222 
TCOON,ioos:station:TCOON:518:1,2009-03-21T21:00:00Z,29.5150,-94.5133,0.0,22.1,11111222 
TCOON,ioos:station:TCOON:518:1,2009-03-21T22:00:00Z,29.5150,-94.5133,0.0,22.3,11111222 
TCOON,ioos:station:TCOON:518:1,2009-03-21T23:00:00Z,29.5150,-94.5133,0.0,23.0,11111222 
TCOON,ioos:station:TCOON:518:1,2009-03-22T00:00:00Z,29.5150,-94.5133,0.0,22.1,11111222 
TCOON,ioos:station:TCOON:518:1,2009-03-22T01:00:00Z,29.5150,-94.5133,0.0,21.4,11111222 
TCOON,ioos:station:TCOON:518:1,2009-03-22T02:00:00Z,29.5150,-94.5133,0.0,21.1,11111222 
TCOON,ioos:station:TCOON:518:1,2009-03-22T03:00:00Z,29.5150,-94.5133,0.0,22.3,11111222 
TCOON,ioos:station:TCOON:518:1,2009-03-22T04:00:00Z,29.5150,-94.5133,0.0,21.5,11111222 
TCOON,ioos:station:TCOON:518:1,2009-03-22T05:00:00Z,29.5150,-94.5133,0.0,21.0,11111222 
TCOON,ioos:station:TCOON:518:1,2009-03-22T06:00:00Z,29.5150,-94.5133,0.0,21.7,11111222 
TCOON,ioos:station:TCOON:518:1,2009-03-22T07:00:00Z,29.5150,-94.5133,0.0,21.6,11111222 
TCOON,ioos:station:TCOON:518:1,2009-03-22T08:00:00Z,29.5150,-94.5133,0.0,20.3,11111222 
TCOON,ioos:station:TCOON:518:1,2009-03-22T09:00:00Z,29.5150,-94.5133,0.0,20.2,11111222 
TCOON,ioos:station:TCOON:518:1,2009-03-22T10:00:00Z,29.5150,-94.5133,0.0,20.1,11111222 
TCOON,ioos:station:TCOON:518:1,2009-03-22T11:00:00Z,29.5150,-94.5133,0.0,19.3,11111222 
TCOON,ioos:station:TCOON:518:1,2009-03-22T12:00:00Z,29.5150,-94.5133,0.0,18.8,11111222 
TCOON,ioos:station:TCOON:518:1,2009-03-22T13:00:00Z,29.5150,-94.5133,0.0,18.7,11111222 
TCOON,ioos:station:TCOON:518:1,2009-03-22T14:00:00Z,29.5150,-94.5133,0.0,19.2,11111222 
TCOON,ioos:station:TCOON:518:1,2009-03-22T15:00:00Z,29.5150,-94.5133,0.0,19.7,11111222 
TCOON,ioos:station:TCOON:518:1,2009-03-22T16:00:00Z,29.5150,-94.5133,0.0,21.3,11111222 
TCOON,ioos:station:TCOON:518:1,2009-03-22T17:00:00Z,29.5150,-94.5133,0.0,22.5,11111222 
TCOON,ioos:station:TCOON:518:1,2009-03-22T18:00:00Z,29.5150,-94.5133,0.0,24.2,11111222 
TCOON,ioos:station:TCOON:518:1,2009-03-22T19:00:00Z,29.5150,-94.5133,0.0,23.1,11111222 
TCOON,ioos:station:TCOON:518:1,2009-03-22T20:00:00Z,29.5150,-94.5133,0.0,21.9,11111222 
TCOON,ioos:station:TCOON:518:1,2009-03-22T21:00:00Z,29.5150,-94.5133,0.0,22.7,11111222 
TCOON,ioos:station:TCOON:518:1,2009-03-22T22:00:00Z,29.5150,-94.5133,0.0,23.3,11111222 
TCOON,ioos:station:TCOON:518:1,2009-03-22T23:00:00Z,29.5150,-94.5133,0.0,25.4,11111222 
TCOON,ioos:station:TCOON:518:1,2009-03-23T00:00:00Z,29.5150,-94.5133,0.0,25.5,11111222 
TCOON,ioos:station:TCOON:518:1,2009-03-23T01:00:00Z,29.5150,-94.5133,0.0,23.8,11111222 
TCOON,ioos:station:TCOON:518:1,2009-03-23T02:00:00Z,29.5150,-94.5133,0.0,22.7,11111222 
TCOON,ioos:station:TCOON:518:1,2009-03-23T03:00:00Z,29.5150,-94.5133,0.0,21.4,11111222 
TCOON,ioos:station:TCOON:518:1,2009-03-23T04:00:00Z,29.5150,-94.5133,0.0,21.2,11111222 
TCOON,ioos:station:TCOON:518:1,2009-03-23T05:00:00Z,29.5150,-94.5133,0.0,21.5,11111222 
TCOON,ioos:station:TCOON:518:1,2009-03-23T06:00:00Z,29.5150,-94.5133,0.0,20.9,11111222 
TCOON,ioos:station:TCOON:518:1,2009-03-23T07:00:00Z,29.5150,-94.5133,0.0,20.6,11111222 
TCOON,ioos:station:TCOON:518:1,2009-03-23T08:00:00Z,29.5150,-94.5133,0.0,20.7,11111222 
TCOON,ioos:station:TCOON:518:1,2009-03-23T09:00:00Z,29.5150,-94.5133,0.0,20.5,11111222 
TCOON,ioos:station:TCOON:518:1,2009-03-23T10:00:00Z,29.5150,-94.5133,0.0,20.5,11111222 
TCOON,ioos:station:TCOON:518:1,2009-03-23T11:00:00Z,29.5150,-94.5133,0.0,20.5,11111222 
TCOON,ioos:station:TCOON:518:1,2009-03-23T12:00:00Z,29.5150,-94.5133,0.0,20.5,11111222 
TCOON,ioos:station:TCOON:518:1,2009-03-23T13:00:00Z,29.5150,-94.5133,0.0,20.4,11111222 
TCOON,ioos:station:TCOON:518:1,2009-03-23T14:00:00Z,29.5150,-94.5133,0.0,20.5,11111222 
TCOON,ioos:station:TCOON:518:1,2009-03-23T15:00:00Z,29.5150,-94.5133,0.0,20.3,11111222 
TCOON,ioos:station:TCOON:518:1,2009-03-23T16:00:00Z,29.5150,-94.5133,0.0,21.1,11111222 
TCOON,ioos:station:TCOON:518:1,2009-03-23T17:00:00Z,29.5150,-94.5133,0.0,21.7,11111222 
TCOON,ioos:station:TCOON:518:1,2009-03-23T18:00:00Z,29.5150,-94.5133,0.0,22.4,11111222 
TCOON,ioos:station:TCOON:518:1,2009-03-23T19:00:00Z,29.5150,-94.5133,0.0,24.7,11111222 
TCOON,ioos:station:TCOON:518:1,2009-03-23T20:00:00Z,29.5150,-94.5133,0.0,24.7,11111222 
TCOON,ioos:station:TCOON:518:1,2009-03-23T21:00:00Z,29.5150,-94.5133,0.0,24.0,11111222 
TCOON,ioos:station:TCOON:518:1,2009-03-23T22:00:00Z,29.5150,-94.5133,0.0,23.0,11111222 
TCOON,ioos:station:TCOON:518:1,2009-03-23T23:00:00Z,29.5150,-94.5133,0.0,25.8,11111222 
TCOON,ioos:station:TCOON:518:1,2009-03-24T00:00:00Z,29.5150,-94.5133,0.0,23.9,11111222 
TCOON,ioos:station:TCOON:518:1,2009-03-24T01:00:00Z,29.5150,-94.5133,0.0,23.2,11111222 
TCOON,ioos:station:TCOON:518:1,2009-03-24T02:00:00Z,29.5150,-94.5133,0.0,22.6,11111222 
TCOON,ioos:station:TCOON:518:1,2009-03-24T03:00:00Z,29.5150,-94.5133,0.0,22.0,11111222 
TCOON,ioos:station:TCOON:518:1,2009-03-24T04:00:00Z,29.5150,-94.5133,0.0,22.0,11111222 
TCOON,ioos:station:TCOON:518:1,2009-03-24T05:00:00Z,29.5150,-94.5133,0.0,21.6,11111222 
TCOON,ioos:station:TCOON:518:1,2009-03-24T06:00:00Z,29.5150,-94.5133,0.0,21.5,11111222 
TCOON,ioos:station:TCOON:518:1,2009-03-24T07:00:00Z,29.5150,-94.5133,0.0,21.4,11111222 
TCOON,ioos:station:TCOON:518:1,2009-03-24T08:00:00Z,29.5150,-94.5133,0.0,21.3,11111222 
TCOON,ioos:station:TCOON:518:1,2009-03-24T09:00:00Z,29.5150,-94.5133,0.0,21.2,11111222 
TCOON,ioos:station:TCOON:518:1,2009-03-24T10:00:00Z,29.5150,-94.5133,0.0,21.1,11111222 
TCOON,ioos:station:TCOON:518:1,2009-03-24T11:00:00Z,29.5150,-94.5133,0.0,21.2,11111222 
TCOON,ioos:station:TCOON:518:1,2009-03-24T12:00:00Z,29.5150,-94.5133,0.0,21.2,11111222 
TCOON,ioos:station:TCOON:518:1,2009-03-24T13:00:00Z,29.5150,-94.5133,0.0,21.2,11111222 
TCOON,ioos:station:TCOON:518:1,2009-03-24T14:00:00Z,29.5150,-94.5133,0.0,21.0,11111222 
TCOON,ioos:station:TCOON:518:1,2009-03-24T15:00:00Z,29.5150,-94.5133,0.0,21.2,11111222 
TCOON,ioos:station:TCOON:518:1,2009-03-24T16:00:00Z,29.5150,-94.5133,0.0,21.4,11111222 
TCOON,ioos:station:TCOON:518:1,2009-03-24T17:00:00Z,29.5150,-94.5133,0.0,21.6,11111222 
TCOON,ioos:station:TCOON:518:1,2009-03-24T18:00:00Z,29.5150,-94.5133,0.0,22.2,11111222 
TCOON,ioos:station:TCOON:518:1,2009-03-24T19:00:00Z,29.5150,-94.5133,0.0,22.0,11111222 
TCOON,ioos:station:TCOON:518:1,2009-03-24T20:00:00Z,29.5150,-94.5133,0.0,22.5,11111222 
TCOON,ioos:station:TCOON:518:1,2009-03-24T21:00:00Z,29.5150,-94.5133,0.0,23.0,11111222 
TCOON,ioos:station:TCOON:518:1,2009-03-24T22:00:00Z,29.5150,-94.5133,0.0,22.8,11111222 
TCOON,ioos:station:TCOON:518:1,2009-03-24T23:00:00Z,29.5150,-94.5133,0.0,22.6,11111222 
TCOON,ioos:station:TCOON:518:1,2009-03-25T00:00:00Z,29.5150,-94.5133,0.0,22.0,11111222 
TCOON,ioos:station:TCOON:518:1,2009-03-25T01:00:00Z,29.5150,-94.5133,0.0,21.9,11111222 
TCOON,ioos:station:TCOON:518:1,2009-03-25T02:00:00Z,29.5150,-94.5133,0.0,21.9,11111222 
TCOON,ioos:station:TCOON:518:1,2009-03-25T03:00:00Z,29.5150,-94.5133,0.0,21.8,11111222 
TCOON,ioos:station:TCOON:518:1,2009-03-25T04:00:00Z,29.5150,-94.5133,0.0,21.8,11111222 
TCOON,ioos:station:TCOON:518:1,2009-03-25T05:00:00Z,29.5150,-94.5133,0.0,21.8,11111222 
TCOON,ioos:station:TCOON:518:1,2009-03-25T06:00:00Z,29.5150,-94.5133,0.0,21.8,11111222 
TCOON,ioos:station:TCOON:518:1,2009-03-25T07:00:00Z,29.5150,-94.5133,0.0,21.7,11111222 
TCOON,ioos:station:TCOON:518:1,2009-03-25T08:00:00Z,29.5150,-94.5133,0.0,21.8,11111222 
TCOON,ioos:station:TCOON:518:1,2009-03-25T09:00:00Z,29.5150,-94.5133,0.0,21.8,11111222 
TCOON,ioos:station:TCOON:518:1,2009-03-25T10:00:00Z,29.5150,-94.5133,0.0,21.8,11111222 
TCOON,ioos:station:TCOON:518:1,2009-03-25T11:00:00Z,29.5150,-94.5133,0.0,21.8,11111222 
TCOON,ioos:station:TCOON:518:1,2009-03-25T12:00:00Z,29.5150,-94.5133,0.0,21.8,11111222 
TCOON,ioos:station:TCOON:518:1,2009-03-25T13:00:00Z,29.5150,-94.5133,0.0,21.8,11111222 
TCOON,ioos:station:TCOON:518:1,2009-03-25T14:00:00Z,29.5150,-94.5133,0.0,21.7,11111222 
TCOON,ioos:station:TCOON:518:1,2009-03-25T15:00:00Z,29.5150,-94.5133,0.0,21.6,11111222 
TCOON,ioos:station:TCOON:518:1,2009-03-25T16:00:00Z,29.5150,-94.5133,0.0,21.7,11111222 
TCOON,ioos:station:TCOON:518:1,2009-03-25T17:00:00Z,29.5150,-94.5133,0.0,22.1,11111222 
TCOON,ioos:station:TCOON:518:1,2009-03-25T18:00:00Z,29.5150,-94.5133,0.0,23.0,11111222 
TCOON,ioos:station:TCOON:518:1,2009-03-25T19:00:00Z,29.5150,-94.5133,0.0,24.8,11111222 
TCOON,ioos:station:TCOON:518:1,2009-03-25T20:00:00Z,29.5150,-94.5133,0.0,25.3,11111222 
TCOON,ioos:station:TCOON:518:1,2009-03-25T21:00:00Z,29.5150,-94.5133,0.0,25.2,11111222 
TCOON,ioos:station:TCOON:518:1,2009-03-25T22:00:00Z,29.5150,-94.5133,0.0,24.3,11111222 
TCOON,ioos:station:TCOON:518:1,2009-03-25T23:00:00Z,29.5150,-94.5133,0.0,22.7,11111222 
TCOON,ioos:station:TCOON:518:1,2009-03-26T00:00:00Z,29.5150,-94.5133,0.0,22.4,11111222 
TCOON,ioos:station:TCOON:518:1,2009-03-26T01:00:00Z,29.5150,-94.5133,0.0,22.3,11111222 
TCOON,ioos:station:TCOON:518:1,2009-03-26T02:00:00Z,29.5150,-94.5133,0.0,22.6,11111222 
TCOON,ioos:station:TCOON:518:1,2009-03-26T03:00:00Z,29.5150,-94.5133,0.0,22.7,11111222 
TCOON,ioos:station:TCOON:518:1,2009-03-26T04:00:00Z,29.5150,-94.5133,0.0,22.7,11111222 
TCOON,ioos:station:TCOON:518:1,2009-03-26T05:00:00Z,29.5150,-94.5133,0.0,22.1,11111222 
TCOON,ioos:station:TCOON:518:1,2009-03-26T06:00:00Z,29.5150,-94.5133,0.0,21.6,11111222 
TCOON,ioos:station:TCOON:518:1,2009-03-26T07:00:00Z,29.5150,-94.5133,0.0,21.0,11111222 
TCOON,ioos:station:TCOON:518:1,2009-03-26T08:00:00Z,29.5150,-94.5133,0.0,20.7,11111222 
TCOON,ioos:station:TCOON:518:1,2009-03-26T09:00:00Z,29.5150,-94.5133,0.0,20.3,11111222 
TCOON,ioos:station:TCOON:518:1,2009-03-26T10:00:00Z,29.5150,-94.5133,0.0,20.4,11111222 
TCOON,ioos:station:TCOON:518:1,2009-03-26T11:00:00Z,29.5150,-94.5133,0.0,20.3,11111222 
TCOON,ioos:station:TCOON:518:1,2009-03-26T12:00:00Z,29.5150,-94.5133,0.0,20.4,11111222 
TCOON,ioos:station:TCOON:518:1,2009-03-26T13:00:00Z,29.5150,-94.5133,0.0,20.4,11111222 
TCOON,ioos:station:TCOON:518:1,2009-03-26T14:00:00Z,29.5150,-94.5133,0.0,20.5,11111222 
TCOON,ioos:station:TCOON:518:1,2009-03-26T15:00:00Z,29.5150,-94.5133,0.0,20.7,11111222 
TCOON,ioos:station:TCOON:518:1,2009-03-26T16:00:00Z,29.5150,-94.5133,0.0,20.7,11111222 
TCOON,ioos:station:TCOON:518:1,2009-03-26T17:00:00Z,29.5150,-94.5133,0.0,21.1,11111222 
TCOON,ioos:station:TCOON:518:1,2009-03-26T18:00:00Z,29.5150,-94.5133,0.0,21.4,11111222 
TCOON,ioos:station:TCOON:518:1,2009-03-26T19:00:00Z,29.5150,-94.5133,0.0,21.6,11111222 
TCOON,ioos:station:TCOON:518:1,2009-03-26T20:00:00Z,29.5150,-94.5133,0.0,21.7,11111222 
TCOON,ioos:station:TCOON:518:1,2009-03-26T21:00:00Z,29.5150,-94.5133,0.0,21.8,11111222 
TCOON,ioos:station:TCOON:518:1,2009-03-26T22:00:00Z,29.5150,-94.5133,0.0,21.7,11111222 
TCOON,ioos:station:TCOON:518:1,2009-03-26T23:00:00Z,29.5150,-94.5133,0.0,21.7,11111222 
TCOON,ioos:station:TCOON:518:1,2009-03-27T00:00:00Z,29.5150,-94.5133,0.0,21.6,11111222 
TCOON,ioos:station:TCOON:518:1,2009-03-27T01:00:00Z,29.5150,-94.5133,0.0,21.5,11111222 
TCOON,ioos:station:TCOON:518:1,2009-03-27T02:00:00Z,29.5150,-94.5133,0.0,21.2,11111222 
TCOON,ioos:station:TCOON:518:1,2009-03-27T03:00:00Z,29.5150,-94.5133,0.0,21.0,11111222 
TCOON,ioos:station:TCOON:518:1,2009-03-27T04:00:00Z,29.5150,-94.5133,0.0,20.9,11111222 
TCOON,ioos:station:TCOON:518:1,2009-03-27T05:00:00Z,29.5150,-94.5133,0.0,20.5,11111222 
TCOON,ioos:station:TCOON:518:1,2009-03-27T06:00:00Z,29.5150,-94.5133,0.0,20.4,11111222 
TCOON,ioos:station:TCOON:518:1,2009-03-27T07:00:00Z,29.5150,-94.5133,0.0,20.4,11111222 
TCOON,ioos:station:TCOON:518:1,2009-03-27T08:00:00Z,29.5150,-94.5133,0.0,21.0,11111222 
TCOON,ioos:station:TCOON:518:1,2009-03-27T09:00:00Z,29.5150,-94.5133,0.0,21.1,11111222 
TCOON,ioos:station:TCOON:518:1,2009-03-27T10:00:00Z,29.5150,-94.5133,0.0,21.2,11111222 
TCOON,ioos:station:TCOON:518:1,2009-03-27T11:00:00Z,29.5150,-94.5133,0.0,21.2,11111222 
TCOON,ioos:station:TCOON:518:1,2009-03-27T12:00:00Z,29.5150,-94.5133,0.0,21.2,11111222 
TCOON,ioos:station:TCOON:518:1,2009-03-27T13:00:00Z,29.5150,-94.5133,0.0,21.0,11111222 
TCOON,ioos:station:TCOON:518:1,2009-03-27T14:00:00Z,29.5150,-94.5133,0.0,21.1,11111222 
TCOON,ioos:station:TCOON:518:1,2009-03-27T15:00:00Z,29.5150,-94.5133,0.0,21.2,11111222 
TCOON,ioos:station:TCOON:518:1,2009-03-27T16:00:00Z,29.5150,-94.5133,0.0,21.2,11111222 
TCOON,ioos:station:TCOON:518:1,2009-03-27T17:00:00Z,29.5150,-94.5133,0.0,21.4,11111222 
TCOON,ioos:station:TCOON:518:1,2009-03-27T18:00:00Z,29.5150,-94.5133,0.0,21.4,11111222 
TCOON,ioos:station:TCOON:518:1,2009-03-27T19:00:00Z,29.5150,-94.5133,0.0,22.2,11111222 
TCOON,ioos:station:TCOON:518:1,2009-03-27T20:00:00Z,29.5150,-94.5133,0.0,22.5,11111222 
TCOON,ioos:station:TCOON:518:1,2009-03-27T21:00:00Z,29.5150,-94.5133,0.0,22.6,11111222 
TCOON,ioos:station:TCOON:518:1,2009-03-27T22:00:00Z,29.5150,-94.5133,0.0,22.3,11111222 
TCOON,ioos:station:TCOON:518:1,2009-03-27T23:00:00Z,29.5150,-94.5133,0.0,22.0,11111222 
TCOON,ioos:station:TCOON:518:1,2009-03-28T00:00:00Z,29.5150,-94.5133,0.0,21.9,11111222 
TCOON,ioos:station:TCOON:518:1,2009-03-28T01:00:00Z,29.5150,-94.5133,0.0,22.2,11111222 
TCOON,ioos:station:TCOON:518:1,2009-03-28T02:00:00Z,29.5150,-94.5133,0.0,21.8,11111222 